| time (UTC) | temp F | wind direction | speed MPH | gust MPH | rain 1hr in | rain 24hr in | rain mn in | humidity % | barometer mb |
| 20260510201018 | 59 | 0 | 0.0 | 0.0 | 0.00 | 0.09 | 0.07 | 48 | 1015.2 |
| 20260510200519 | 59 | 0 | 0.0 | 0.0 | 0.00 | 0.09 | 0.07 | 53 | 1015.2 |
| 20260510200033 | 59 | 0 | 0.0 | 0.0 | 0.00 | 0.09 | 0.07 | 47 | 1015.1 |
| 20260510195517 | 59 | 0 | 0.0 | 0.0 | 0.00 | 0.09 | 0.07 | 47 | 1015.1 |
| 20260510195018 | 59 | 0 | 0.0 | 0.0 | 0.00 | 0.09 | 0.07 | 48 | 1015.1 |
| 20260510194532 | 59 | 0 | 0.0 | 0.0 | 0.00 | 0.09 | 0.07 | 49 | 1015.1 |
| 20260510194015 | 59 | 0 | 0.0 | 0.0 | 0.00 | 0.09 | 0.07 | 48 | 1015.1 |
| 20260510193518 | 59 | 0 | 0.0 | 0.0 | 0.00 | 0.09 | 0.07 | 54 | 1015.1 |
| 20260510193031 | 59 | 0 | 0.0 | 0.0 | 0.00 | 0.09 | 0.07 | 51 | 1015.1 |
| 20260510192517 | 59 | 0 | 0.0 | 0.0 | 0.00 | 0.09 | 0.07 | 53 | 1015.2 |
| 20260510192017 | 59 | 0 | 0.0 | 0.0 | 0.00 | 0.09 | 0.07 | 47 | 1015.2 |
| 20260510191532 | 59 | 0 | 0.0 | 0.0 | 0.00 | 0.09 | 0.07 | 50 | 1015.0 |
| 20260510191020 | 59 | 0 | 0.0 | 0.0 | 0.00 | 0.09 | 0.07 | 50 | 1015.1 |
| 20260510190517 | 59 | 0 | 0.0 | 0.0 | 0.00 | 0.09 | 0.07 | 52 | 1015.0 |
| 20260510190034 | 60 | 0 | 0.0 | 0.0 | 0.00 | 0.09 | 0.07 | 52 | 1015.0 |
| 20260510185520 | 59 | 0 | 0.0 | 0.0 | 0.00 | 0.09 | 0.07 | 50 | 1015.0 |
| 20260510185017 | 59 | 0 | 0.0 | 0.0 | 0.00 | 0.09 | 0.07 | 49 | 1014.9 |
| 20260510184536 | 59 | 0 | 0.0 | 0.0 | 0.00 | 0.09 | 0.07 | 52 | 1015.0 |
| 20260510184019 | 59 | 0 | 0.0 | 0.0 | 0.00 | 0.09 | 0.07 | 53 | 1015.0 |
| 20260510183517 | 59 | 0 | 0.0 | 0.0 | 0.00 | 0.09 | 0.07 | 55 | 1014.9 |
| 20260510183036 | 59 | 0 | 0.0 | 0.0 | 0.00 | 0.09 | 0.07 | 59 | 1014.9 |
| 20260510182517 | 59 | 0 | 0.0 | 0.0 | 0.00 | 0.09 | 0.07 | 53 | 1014.9 |
| 20260510182017 | 59 | 0 | 0.0 | 0.0 | 0.00 | 0.09 | 0.07 | 53 | 1014.9 |
| 20260510181536 | 59 | 0 | 0.0 | 0.0 | 0.00 | 0.09 | 0.07 | 54 | 1014.6 |
| 20260510181018 | 59 | 0 | 0.0 | 0.0 | 0.00 | 0.09 | 0.07 | 54 | 1014.6 |
| 20260510180518 | 59 | 0 | 0.0 | 0.0 | 0.00 | 0.09 | 0.07 | 54 | 1014.5 |
| 20260510180039 | 60 | 0 | 0.0 | 0.0 | 0.00 | 0.09 | 0.07 | 57 | 1014.5 |
| 20260510175517 | 60 | 0 | 0.0 | 0.0 | 0.00 | 0.09 | 0.07 | 53 | 1014.4 |
| 20260510175017 | 59 | 0 | 0.0 | 0.0 | 0.00 | 0.09 | 0.07 | 60 | 1014.4 |
| 20260510174530 | 60 | 0 | 0.0 | 0.0 | 0.00 | 0.09 | 0.07 | 53 | 1014.3 |
| 20260510174019 | 60 | 0 | 0.0 | 0.0 | 0.00 | 0.09 | 0.07 | 57 | 1014.3 |
| 20260510173517 | 60 | 0 | 0.0 | 0.0 | 0.00 | 0.09 | 0.07 | 58 | 1014.3 |
| 20260510173033 | 60 | 0 | 0.0 | 0.0 | 0.00 | 0.09 | 0.07 | 54 | 1014.4 |
| 20260510172516 | 60 | 0 | 0.0 | 0.0 | 0.00 | 0.09 | 0.07 | 60 | 1014.4 |
| 20260510172019 | 60 | 0 | 0.0 | 0.0 | 0.00 | 0.09 | 0.07 | 60 | 1014.3 |
| 20260510171536 | 60 | 0 | 0.0 | 0.0 | 0.00 | 0.09 | 0.07 | 56 | 1014.3 |
| 20260510171017 | 60 | 0 | 0.0 | 0.0 | 0.00 | 0.09 | 0.07 | 60 | 1014.3 |
| 20260510170518 | 60 | 0 | 0.0 | 0.0 | 0.00 | 0.09 | 0.07 | 56 | 1014.2 |
| 20260510170030 | 60 | 0 | 0.0 | 0.0 | 0.00 | 0.09 | 0.07 | 58 | 1014.1 |
| 20260510165520 | 60 | 0 | 0.0 | 0.0 | 0.00 | 0.09 | 0.07 | 58 | 1014.1 |
| 20260510165021 | 59 | 0 | 0.0 | 0.0 | 0.00 | 0.09 | 0.07 | 54 | 1014.1 |
| 20260510164533 | 59 | 0 | 0.0 | 0.0 | 0.00 | 0.09 | 0.07 | 55 | 1014.1 |
| 20260510164017 | 59 | 0 | 0.0 | 0.0 | 0.00 | 0.09 | 0.07 | 53 | 1014.1 |
| 20260510163517 | 59 | 0 | 0.0 | 0.0 | 0.00 | 0.09 | 0.07 | 55 | 1014.0 |
| 20260510163031 | 59 | 0 | 0.0 | 0.0 | 0.00 | 0.09 | 0.07 | 59 | 1013.9 |
| 20260510162518 | 58 | 0 | 0.0 | 0.0 | 0.00 | 0.09 | 0.07 | 56 | 1014.2 |
| 20260510162018 | 59 | 0 | 0.0 | 0.0 | 0.00 | 0.09 | 0.07 | 52 | 1014.3 |
| 20260510161535 | 59 | 0 | 0.0 | 0.0 | 0.00 | 0.09 | 0.07 | 53 | 1014.3 |
| 20260510161018 | 60 | 0 | 0.0 | 0.0 | 0.00 | 0.09 | 0.07 | 53 | 1014.3 |
| 20260510160518 | 59 | 0 | 0.0 | 0.0 | 0.00 | 0.09 | 0.07 | 56 | 1014.2 |
| 20260510160038 | 59 | 0 | 0.0 | 0.0 | 0.00 | 0.09 | 0.07 | 56 | 1014.3 |
| 20260510155521 | 59 | 0 | 0.0 | 0.0 | 0.00 | 0.09 | 0.07 | 54 | 1014.2 |
| 20260510155018 | 58 | 0 | 0.0 | 0.0 | 0.00 | 0.09 | 0.07 | 56 | 1014.1 |
| 20260510154533 | 58 | 0 | 0.0 | 0.0 | 0.00 | 0.09 | 0.07 | 54 | 1014.1 |
| 20260510154014 | 58 | 0 | 0.0 | 0.0 | 0.00 | 0.09 | 0.07 | 58 | 1014.2 |
| 20260510153517 | 57 | 0 | 0.0 | 0.0 | 0.00 | 0.09 | 0.07 | 61 | 1014.0 |
| 20260510153032 | 56 | 0 | 0.0 | 0.0 | 0.00 | 0.09 | 0.07 | 56 | 1014.0 |
| 20260510152517 | 56 | 0 | 0.0 | 0.0 | 0.00 | 0.09 | 0.07 | 53 | 1014.1 |
| 20260510152016 | 56 | 0 | 0.0 | 0.0 | 0.00 | 0.09 | 0.07 | 57 | 1014.1 |
| 20260510151539 | 57 | 0 | 0.0 | 0.0 | 0.00 | 0.09 | 0.07 | 51 | 1014.0 |
| 20260510151017 | 57 | 0 | 0.0 | 0.0 | 0.00 | 0.09 | 0.07 | 50 | 1013.9 |
| 20260510150517 | 57 | 0 | 0.0 | 0.0 | 0.00 | 0.09 | 0.07 | 55 | 1013.8 |
| 20260510150042 | 56 | 0 | 0.0 | 0.0 | 0.00 | 0.09 | 0.07 | 57 | 1013.8 |
| 20260510145517 | 56 | 0 | 0.0 | 0.0 | 0.00 | 0.10 | 0.07 | 52 | 1013.8 |
| 20260510145017 | 56 | 0 | 0.0 | 0.0 | 0.00 | 0.10 | 0.07 | 61 | 1013.7 |
| 20260510144537 | 55 | 0 | 0.0 | 0.0 | 0.00 | 0.10 | 0.07 | 59 | 1013.8 |
| 20260510144015 | 55 | 0 | 0.0 | 0.0 | 0.00 | 0.10 | 0.07 | 59 | 1013.6 |
| 20260510143514 | 54 | 0 | 0.0 | 0.0 | 0.00 | 0.10 | 0.07 | 63 | 1013.5 |
| 20260510143034 | 54 | 0 | 0.0 | 0.0 | 0.00 | 0.10 | 0.07 | 67 | 1013.5 |
| 20260510142518 | 53 | 0 | 0.0 | 0.0 | 0.00 | 0.10 | 0.07 | 64 | 1013.5 |
| 20260510142020 | 53 | 0 | 0.0 | 0.0 | 0.00 | 0.10 | 0.07 | 65 | 1013.5 |
| 20260510141530 | 52 | 0 | 0.0 | 0.0 | 0.00 | 0.10 | 0.07 | 68 | 1013.5 |
| 20260510141019 | 52 | 0 | 0.0 | 0.0 | 0.00 | 0.10 | 0.07 | 69 | 1013.6 |
| 20260510140518 | 51 | 0 | 0.0 | 0.0 | 0.00 | 0.10 | 0.07 | 67 | 1013.6 |
| 20260510140039 | 51 | 0 | 0.0 | 0.0 | 0.00 | 0.10 | 0.07 | 66 | 1013.6 |
| 20260510135521 | 51 | 0 | 0.0 | 0.0 | 0.00 | 0.13 | 0.07 | 68 | 1013.6 |
| 20260510135021 | 52 | 0 | 0.0 | 0.0 | 0.00 | 0.13 | 0.07 | 69 | 1013.7 |
| 20260510134533 | 52 | 0 | 0.0 | 0.0 | 0.00 | 0.13 | 0.07 | 74 | 1013.5 |
| 20260510134017 | 52 | 0 | 0.0 | 0.0 | 0.00 | 0.13 | 0.07 | 73 | 1013.3 |
| 20260510133517 | 51 | 0 | 0.0 | 0.0 | 0.00 | 0.13 | 0.07 | 76 | 1013.4 |
| 20260510133033 | 51 | 0 | 0.0 | 0.0 | 0.00 | 0.13 | 0.07 | 77 | 1013.4 |
| 20260510132518 | 51 | 0 | 0.0 | 0.0 | 0.00 | 0.13 | 0.07 | 75 | 1013.4 |
| 20260510132016 | 51 | 0 | 0.0 | 0.0 | 0.00 | 0.13 | 0.07 | 76 | 1013.5 |
| 20260510131530 | 50 | 0 | 0.0 | 0.0 | 0.00 | 0.13 | 0.07 | 75 | 1013.5 |
| 20260510131018 | 50 | 0 | 0.0 | 0.0 | 0.00 | 0.13 | 0.07 | 77 | 1013.3 |
| 20260510130521 | 50 | 0 | 0.0 | 0.0 | 0.00 | 0.13 | 0.07 | 79 | 1013.5 |
| 20260510130033 | 50 | 0 | 0.0 | 0.0 | 0.00 | 0.13 | 0.07 | 79 | 1013.4 |
| 20260510125517 | 50 | 0 | 0.0 | 0.0 | 0.00 | 0.15 | 0.07 | 79 | 1013.5 |
| 20260510125014 | 50 | 0 | 0.0 | 0.0 | 0.00 | 0.15 | 0.07 | 80 | 1013.4 |
| 20260510124530 | 50 | 0 | 0.0 | 0.0 | 0.00 | 0.15 | 0.07 | 82 | 1013.5 |
| 20260510124017 | 50 | 0 | 0.0 | 0.0 | 0.00 | 0.15 | 0.07 | 83 | 1013.3 |
| 20260510123517 | 50 | 0 | 0.0 | 0.0 | 0.00 | 0.15 | 0.07 | 85 | 1013.2 |
| 20260510123036 | 50 | 0 | 0.0 | 0.0 | 0.00 | 0.15 | 0.07 | 84 | 1013.0 |
| 20260510122517 | 50 | 0 | 0.0 | 0.0 | 0.00 | 0.15 | 0.07 | 85 | 1012.7 |
| 20260510122018 | 50 | 0 | 0.0 | 0.0 | 0.00 | 0.15 | 0.07 | 84 | 1012.8 |
| 20260510121533 | 50 | 0 | 0.0 | 0.0 | 0.00 | 0.15 | 0.07 | 84 | 1013.0 |
| 20260510121019 | 50 | 0 | 0.0 | 0.0 | 0.00 | 0.15 | 0.07 | 86 | 1012.8 |
| 20260510120522 | 50 | 0 | 0.0 | 0.0 | 0.00 | 0.15 | 0.07 | 84 | 1012.6 |
| 20260510120032 | 50 | 0 | 0.0 | 0.0 | 0.00 | 0.15 | 0.07 | 84 | 1012.5 |
| 20260510115519 | 50 | 0 | 0.0 | 0.0 | 0.00 | 0.16 | 0.07 | 85 | 1012.2 |
| 20260510115021 | 50 | 0 | 0.0 | 0.0 | 0.00 | 0.16 | 0.07 | 85 | 1012.1 |
| 20260510114532 | 50 | 0 | 0.0 | 0.0 | 0.00 | 0.16 | 0.07 | 87 | 1012.1 |
| 20260510114017 | 50 | 0 | 0.0 | 0.0 | 0.00 | 0.16 | 0.07 | 89 | 1011.9 |
| 20260510113517 | 50 | 0 | 0.0 | 0.0 | 0.00 | 0.16 | 0.07 | 91 | 1011.8 |
| 20260510113031 | 50 | 0 | 0.0 | 0.0 | 0.00 | 0.16 | 0.07 | 93 | 1011.6 |
| 20260510112518 | 50 | 0 | 0.0 | 0.0 | 0.00 | 0.16 | 0.07 | 95 | 1011.3 |
| 20260510112018 | 49 | 0 | 0.0 | 0.0 | 0.00 | 0.16 | 0.07 | 96 | 1011.3 |
| 20260510111538 | 49 | 0 | 0.0 | 0.0 | 0.00 | 0.16 | 0.07 | 97 | 1011.1 |
| 20260510111018 | 50 | 0 | 0.0 | 0.0 | 0.00 | 0.16 | 0.07 | 97 | 1011.2 |
| 20260510110518 | 50 | 0 | 0.0 | 0.0 | 0.00 | 0.16 | 0.07 | 97 | 1011.1 |
| 20260510110033 | 50 | 0 | 0.0 | 0.0 | 0.00 | 0.16 | 0.07 | 97 | 1010.9 |
| 20260510105518 | 50 | 0 | 0.0 | 0.0 | 0.00 | 0.16 | 0.07 | 97 | 1010.5 |
| 20260510105018 | 50 | 0 | 0.0 | 0.0 | 0.00 | 0.16 | 0.07 | 97 | 1010.3 |
| 20260510104532 | 50 | 0 | 0.0 | 0.0 | 0.00 | 0.16 | 0.07 | 97 | 1010.3 |
| 20260510104018 | 49 | 0 | 0.0 | 0.0 | 0.00 | 0.16 | 0.07 | 97 | 1010.3 |
| 20260510103518 | 49 | 0 | 0.0 | 0.0 | 0.00 | 0.16 | 0.07 | 97 | 1010.2 |
| 20260510103043 | 49 | 0 | 0.0 | 0.0 | 0.00 | 0.16 | 0.07 | 97 | 1010.1 |
| 20260510102518 | 49 | 0 | 0.0 | 0.0 | 0.00 | 0.16 | 0.07 | 97 | 1010.0 |
| 20260510102022 | 49 | 0 | 0.0 | 0.0 | 0.00 | 0.16 | 0.07 | 97 | 1010.0 |
| 20260510101532 | 49 | 0 | 0.0 | 0.0 | 0.00 | 0.16 | 0.07 | 97 | 1009.8 |
| 20260510101019 | 49 | 0 | 0.0 | 0.0 | 0.00 | 0.16 | 0.07 | 97 | 1009.7 |
| 20260510100518 | 49 | 0 | 0.0 | 0.0 | 0.00 | 0.16 | 0.07 | 97 | 1009.6 |
| 20260510100040 | 49 | 0 | 0.0 | 0.0 | 0.00 | 0.16 | 0.07 | 97 | 1009.5 |
| 20260510095521 | 49 | 0 | 0.0 | 0.0 | 0.00 | 0.16 | 0.07 | 97 | 1009.7 |
| 20260510095018 | 49 | 0 | 0.0 | 0.0 | 0.00 | 0.16 | 0.07 | 97 | 1009.6 |
| 20260510094544 | 49 | 0 | 0.0 | 0.0 | 0.00 | 0.16 | 0.07 | 97 | 1009.5 |
| 20260510094018 | 49 | 0 | 0.0 | 0.0 | 0.00 | 0.16 | 0.07 | 97 | 1009.3 |
| 20260510093518 | 49 | 0 | 0.0 | 0.0 | 0.00 | 0.16 | 0.07 | 97 | 1009.2 |
| 20260510093035 | 49 | 0 | 0.0 | 0.0 | 0.00 | 0.16 | 0.07 | 97 | 1009.1 |
| 20260510092520 | 49 | 0 | 0.0 | 0.0 | 0.00 | 0.16 | 0.07 | 97 | 1008.9 |
| 20260510092015 | 49 | 0 | 0.0 | 0.0 | 0.00 | 0.16 | 0.07 | 97 | 1009.0 |
| 20260510091534 | 49 | 0 | 0.0 | 0.0 | 0.00 | 0.16 | 0.07 | 97 | 1009.0 |
| 20260510091017 | 49 | 0 | 0.0 | 0.0 | 0.00 | 0.16 | 0.07 | 97 | 1009.2 |
| 20260510090518 | 48 | 0 | 0.0 | 0.0 | 0.00 | 0.16 | 0.07 | 97 | 1009.1 |
| 20260510090033 | 48 | 0 | 0.0 | 0.0 | 0.00 | 0.16 | 0.07 | 97 | 1009.0 |
| 20260510085517 | 47 | 0 | 0.0 | 0.0 | 0.00 | 0.16 | 0.07 | 97 | 1009.0 |
| 20260510085017 | 47 | 0 | 0.0 | 0.0 | 0.00 | 0.16 | 0.07 | 96 | 1009.0 |
| 20260510084535 | 47 | 0 | 0.0 | 0.0 | 0.00 | 0.16 | 0.07 | 97 | 1009.0 |
| 20260510084017 | 47 | 0 | 0.0 | 0.0 | 0.00 | 0.16 | 0.07 | 96 | 1008.6 |
| 20260510083517 | 46 | 0 | 0.0 | 0.0 | 0.00 | 0.16 | 0.07 | 96 | 1008.6 |
| 20260510083049 | 46 | 0 | 0.0 | 0.0 | 0.00 | 0.16 | 0.07 | 96 | 1008.8 |
| 20260510082517 | 46 | 0 | 0.0 | 0.0 | 0.00 | 0.16 | 0.07 | 96 | 1008.7 |
| 20260510082020 | 46 | 0 | 0.0 | 0.0 | 0.00 | 0.16 | 0.07 | 96 | 1008.6 |
| 20260510081534 | 46 | 0 | 0.0 | 0.0 | 0.00 | 0.16 | 0.07 | 96 | 1008.8 |
| 20260510081017 | 46 | 0 | 0.0 | 0.0 | 0.00 | 0.16 | 0.07 | 96 | 1008.7 |
| 20260510080517 | 46 | 0 | 0.0 | 0.0 | 0.00 | 0.16 | 0.07 | 96 | 1008.6 |
| 20260510080031 | 46 | 0 | 0.0 | 0.0 | 0.00 | 0.16 | 0.07 | 95 | 1008.7 |
| 20260510075518 | 47 | 0 | 0.0 | 0.0 | 0.00 | 0.16 | 0.07 | 95 | 1008.7 |
| 20260510075017 | 47 | 0 | 0.0 | 0.0 | 0.00 | 0.16 | 0.07 | 95 | 1008.7 |
| 20260510074532 | 47 | 0 | 0.0 | 0.0 | 0.00 | 0.16 | 0.07 | 95 | 1008.6 |
| 20260510074021 | 47 | 0 | 0.0 | 0.0 | 0.01 | 0.16 | 0.07 | 95 | 1008.5 |
| 20260510073517 | 48 | 0 | 0.0 | 0.0 | 0.01 | 0.16 | 0.07 | 95 | 1008.5 |
| 20260510073049 | 48 | 0 | 0.0 | 0.0 | 0.01 | 0.16 | 0.07 | 95 | 1008.5 |
| 20260510072520 | 48 | 0 | 0.0 | 0.0 | 0.01 | 0.16 | 0.07 | 95 | 1008.5 |
| 20260510072018 | 48 | 0 | 0.0 | 0.0 | 0.01 | 0.16 | 0.07 | 96 | 1008.4 |
| 20260510071538 | 48 | 0 | 0.0 | 0.0 | 0.01 | 0.16 | 0.07 | 96 | 1008.4 |
| 20260510071019 | 48 | 0 | 0.0 | 0.0 | 0.01 | 0.16 | 0.07 | 95 | 1008.0 |
| 20260510070518 | 48 | 0 | 0.0 | 0.0 | 0.01 | 0.16 | 0.07 | 95 | 1007.8 |
| 20260510070031 | 48 | 0 | 0.0 | 0.0 | 0.01 | 0.16 | 0.07 | 95 | 1007.8 |
| 20260510065516 | 49 | 0 | 0.0 | 0.0 | 0.01 | 0.16 | 0.07 | 95 | 1007.9 |
| 20260510065022 | 49 | 0 | 0.0 | 0.0 | 0.01 | 0.16 | 0.07 | 95 | 1008.1 |
| 20260510064531 | 49 | 0 | 0.0 | 0.0 | 0.00 | 0.15 | 0.06 | 95 | 1008.1 |
| 20260510064018 | 49 | 0 | 0.0 | 0.0 | 0.00 | 0.15 | 0.06 | 95 | 1008.1 |
| 20260510063515 | 49 | 0 | 0.0 | 0.0 | 0.00 | 0.15 | 0.06 | 95 | 1008.3 |
| 20260510063031 | 50 | 0 | 0.0 | 0.0 | 0.00 | 0.15 | 0.06 | 95 | 1008.3 |
| 20260510062518 | 50 | 0 | 0.0 | 0.0 | 0.00 | 0.15 | 0.06 | 95 | 1008.1 |
| 20260510062015 | 50 | 0 | 0.0 | 0.0 | 0.00 | 0.15 | 0.06 | 95 | 1008.1 |
| 20260510061539 | 50 | 0 | 0.0 | 0.0 | 0.00 | 0.15 | 0.06 | 95 | 1008.2 |
| 20260510061018 | 51 | 0 | 0.0 | 0.0 | 0.00 | 0.15 | 0.06 | 95 | 1008.3 |
| 20260510060521 | 51 | 0 | 0.0 | 0.0 | 0.00 | 0.15 | 0.06 | 95 | 1008.5 |
| 20260510060041 | 51 | 0 | 0.0 | 0.0 | 0.00 | 0.15 | 0.06 | 95 | 1008.4 |
| 20260510055515 | 51 | 0 | 0.0 | 0.0 | 0.00 | 0.15 | 0.06 | 95 | 1008.7 |
| 20260510055016 | 51 | 0 | 0.0 | 0.0 | 0.00 | 0.15 | 0.06 | 95 | 1008.6 |
| 20260510054537 | 51 | 0 | 0.0 | 0.0 | 0.00 | 0.15 | 0.06 | 95 | 1008.5 |
| 20260510054018 | 51 | 0 | 0.0 | 0.0 | 0.01 | 0.15 | 0.06 | 95 | 1008.5 |
| 20260510053516 | 51 | 0 | 0.0 | 0.0 | 0.02 | 0.15 | 0.06 | 95 | 1008.4 |
| 20260510053030 | 51 | 0 | 0.0 | 0.0 | 0.03 | 0.15 | 0.06 | 95 | 1008.4 |
| 20260510052516 | 51 | 0 | 0.0 | 0.0 | 0.04 | 0.15 | 0.06 | 95 | 1008.5 |
| 20260510052014 | 51 | 0 | 0.0 | 0.0 | 0.05 | 0.15 | 0.06 | 94 | 1008.3 |
| 20260510051534 | 51 | 0 | 0.0 | 0.0 | 0.05 | 0.15 | 0.06 | 94 | 1008.2 |
| 20260510051016 | 51 | 0 | 0.0 | 0.0 | 0.06 | 0.15 | 0.06 | 94 | 1008.2 |
| 20260510050515 | 51 | 0 | 0.0 | 0.0 | 0.06 | 0.15 | 0.06 | 94 | 1008.3 |
| 20260510050035 | 52 | 0 | 0.0 | 0.0 | 0.06 | 0.15 | 0.06 | 94 | 1008.2 |
| 20260510045521 | 52 | 0 | 0.0 | 0.0 | 0.06 | 0.15 | 0.06 | 94 | 1008.5 |
| 20260510045017 | 52 | 0 | 0.0 | 0.0 | 0.07 | 0.15 | 0.06 | 94 | 1008.6 |
| 20260510044533 | 52 | 0 | 0.0 | 0.0 | 0.08 | 0.15 | 0.06 | 94 | 1008.8 |
| 20260510044017 | 52 | 0 | 0.0 | 0.0 | 0.07 | 0.14 | 0.05 | 94 | 1009.0 |
| 20260510043518 | 52 | 0 | 0.0 | 0.0 | 0.06 | 0.13 | 0.04 | 94 | 1009.2 |
| 20260510043034 | 52 | 0 | 0.0 | 0.0 | 0.05 | 0.12 | 0.03 | 93 | 1009.1 |
| 20260510042522 | 52 | 0 | 0.0 | 0.0 | 0.04 | 0.11 | 0.02 | 93 | 1009.0 |
| 20260510042017 | 52 | 0 | 0.0 | 0.0 | 0.03 | 0.10 | 0.01 | 92 | 1009.0 |
| 20260510041535 | 53 | 0 | 0.0 | 0.0 | 0.02 | 0.09 | 0.00 | 92 | 1008.8 |
| 20260510041017 | 53 | 0 | 0.0 | 0.0 | 0.02 | 0.09 | 0.00 | 91 | 1008.8 |
| 20260510040517 | 53 | 0 | 0.0 | 0.0 | 0.02 | 0.09 | 0.00 | 90 | 1008.9 |
| 20260510040032 | 54 | 0 | 0.0 | 0.0 | 0.02 | 0.09 | 0.00 | 89 | 1008.8 |
| 20260510035517 | 54 | 0 | 0.0 | 0.0 | 0.02 | 0.09 | 0.09 | 88 | 1008.8 |
| 20260510035017 | 55 | 0 | 0.0 | 0.0 | 0.01 | 0.08 | 0.08 | 87 | 1008.8 |
| 20260510034531 | 55 | 0 | 0.0 | 0.0 | 0.00 | 0.07 | 0.07 | 87 | 1008.9 |
| 20260510034017 | 55 | 0 | 0.0 | 0.0 | 0.00 | 0.07 | 0.07 | 88 | 1008.9 |
| 20260510033520 | 55 | 0 | 0.0 | 0.0 | 0.00 | 0.07 | 0.07 | 89 | 1008.7 |
| 20260510033032 | 54 | 0 | 0.0 | 0.0 | 0.00 | 0.07 | 0.07 | 90 | 1008.7 |
| 20260510032517 | 54 | 0 | 0.0 | 0.0 | 0.00 | 0.07 | 0.07 | 90 | 1008.6 |
| 20260510032017 | 54 | 0 | 0.0 | 0.0 | 0.00 | 0.07 | 0.07 | 90 | 1008.5 |
| 20260510031532 | 54 | 0 | 0.0 | 0.0 | 0.00 | 0.07 | 0.07 | 90 | 1008.1 |
| 20260510031017 | 54 | 0 | 0.0 | 0.0 | 0.00 | 0.07 | 0.07 | 90 | 1007.9 |
| 20260510030522 | 54 | 0 | 0.0 | 0.0 | 0.00 | 0.07 | 0.07 | 90 | 1007.9 |
| 20260510030042 | 54 | 0 | 0.0 | 0.0 | 0.00 | 0.07 | 0.07 | 91 | 1007.6 |
| 20260510025519 | 54 | 0 | 0.0 | 0.0 | 0.00 | 0.07 | 0.07 | 91 | 1007.4 |
| 20260510025017 | 53 | 0 | 0.0 | 0.0 | 0.00 | 0.07 | 0.07 | 91 | 1007.2 |
| 20260510024532 | 53 | 0 | 0.0 | 0.0 | 0.00 | 0.07 | 0.07 | 92 | 1007.2 |
| 20260510024017 | 53 | 0 | 0.0 | 0.0 | 0.00 | 0.07 | 0.07 | 92 | 1007.1 |
| 20260510023517 | 53 | 0 | 0.0 | 0.0 | 0.00 | 0.07 | 0.07 | 92 | 1007.2 |
| 20260510023032 | 53 | 0 | 0.0 | 0.0 | 0.00 | 0.07 | 0.07 | 92 | 1007.4 |
| 20260510022517 | 53 | 0 | 0.0 | 0.0 | 0.00 | 0.07 | 0.07 | 91 | 1007.2 |
| 20260510022017 | 53 | 0 | 0.0 | 0.0 | 0.00 | 0.07 | 0.07 | 91 | 1007.2 |
| 20260510021533 | 53 | 0 | 0.0 | 0.0 | 0.00 | 0.07 | 0.07 | 91 | 1007.1 |
| 20260510021014 | 53 | 0 | 0.0 | 0.0 | 0.00 | 0.07 | 0.07 | 92 | 1007.0 |
| 20260510020517 | 53 | 0 | 0.0 | 0.0 | 0.00 | 0.07 | 0.07 | 92 | 1006.8 |
| 20260510020030 | 52 | 0 | 0.0 | 0.0 | 0.00 | 0.07 | 0.07 | 93 | 1006.8 |
| 20260510015514 | 52 | 0 | 0.0 | 0.0 | 0.00 | 0.07 | 0.07 | 92 | 1006.6 |
| 20260510015016 | 52 | 0 | 0.0 | 0.0 | 0.00 | 0.07 | 0.07 | 92 | 1006.6 |
| 20260510014529 | 52 | 0 | 0.0 | 0.0 | 0.00 | 0.07 | 0.07 | 92 | 1006.9 |
| 20260510014017 | 51 | 0 | 0.0 | 0.0 | 0.00 | 0.07 | 0.07 | 92 | 1007.1 |
| 20260510013517 | 52 | 0 | 0.0 | 0.0 | 0.00 | 0.07 | 0.07 | 92 | 1007.0 |
| 20260510013034 | 52 | 0 | 0.0 | 0.0 | 0.00 | 0.07 | 0.07 | 92 | 1006.9 |
| 20260510012517 | 52 | 0 | 0.0 | 0.0 | 0.00 | 0.07 | 0.07 | 91 | 1006.7 |
| 20260510012017 | 52 | 0 | 0.0 | 0.0 | 0.00 | 0.07 | 0.07 | 92 | 1006.8 |
| 20260510011532 | 52 | 0 | 0.0 | 0.0 | 0.00 | 0.07 | 0.07 | 91 | 1006.8 |
| 20260510011016 | 52 | 0 | 0.0 | 0.0 | 0.00 | 0.07 | 0.07 | 91 | 1006.8 |
| 20260510010518 | 51 | 0 | 0.0 | 0.0 | 0.00 | 0.07 | 0.07 | 91 | 1006.7 |
| 20260510010030 | 52 | 0 | 0.0 | 0.0 | 0.00 | 0.07 | 0.07 | 92 | 1006.7 |
| 20260510005518 | 51 | 0 | 0.0 | 0.0 | 0.00 | 0.07 | 0.07 | 91 | 1006.7 |
| 20260510005019 | 51 | 0 | 0.0 | 0.0 | 0.00 | 0.07 | 0.07 | 91 | 1006.6 |
| 20260510004532 | 51 | 0 | 0.0 | 0.0 | 0.00 | 0.07 | 0.07 | 90 | 1006.6 |
| 20260510004018 | 51 | 0 | 0.0 | 0.0 | 0.00 | 0.07 | 0.07 | 89 | 1006.6 |
| 20260510003517 | 52 | 0 | 0.0 | 0.0 | 0.00 | 0.07 | 0.07 | 89 | 1006.7 |
| 20260510003038 | 52 | 0 | 0.0 | 0.0 | 0.00 | 0.07 | 0.07 | 88 | 1006.4 |
| 20260510002518 | 53 | 0 | 0.0 | 0.0 | 0.00 | 0.07 | 0.07 | 88 | 1006.4 |
| 20260510002017 | 53 | 0 | 0.0 | 0.0 | 0.00 | 0.07 | 0.07 | 87 | 1006.4 |
| 20260510001532 | 54 | 0 | 0.0 | 0.0 | 0.00 | 0.07 | 0.07 | 87 | 1006.4 |
| 20260510001017 | 54 | 0 | 0.0 | 0.0 | 0.00 | 0.07 | 0.07 | 87 | 1006.4 |
| 20260510000514 | 54 | 0 | 0.0 | 0.0 | 0.00 | 0.07 | 0.07 | 86 | 1006.3 |
| 20260510000030 | 54 | 0 | 0.0 | 0.0 | 0.00 | 0.07 | 0.07 | 86 | 1006.3 |
| 20260509235517 | 55 | 0 | 0.0 | 0.0 | 0.00 | 0.07 | 0.07 | 85 | 1006.4 |
| 20260509235017 | 55 | 0 | 0.0 | 0.0 | 0.00 | 0.07 | 0.07 | 85 | 1006.4 |
| 20260509234538 | 56 | 0 | 0.0 | 0.0 | 0.00 | 0.07 | 0.07 | 84 | 1006.2 |
| 20260509234019 | 56 | 0 | 0.0 | 0.0 | 0.00 | 0.07 | 0.07 | 83 | 1005.9 |
| 20260509233517 | 57 | 0 | 0.0 | 0.0 | 0.00 | 0.07 | 0.07 | 82 | 1006.0 |
| 20260509233032 | 57 | 0 | 0.0 | 0.0 | 0.00 | 0.07 | 0.07 | 82 | 1006.1 |
| 20260509232517 | 57 | 0 | 0.0 | 0.0 | 0.00 | 0.07 | 0.07 | 81 | 1006.2 |
| 20260509232019 | 57 | 0 | 0.0 | 0.0 | 0.00 | 0.07 | 0.07 | 82 | 1006.4 |
| 20260509231538 | 57 | 0 | 0.0 | 0.0 | 0.00 | 0.07 | 0.07 | 82 | 1006.3 |
| 20260509231017 | 57 | 0 | 0.0 | 0.0 | 0.00 | 0.07 | 0.07 | 82 | 1006.3 |
| 20260509230517 | 57 | 0 | 0.0 | 0.0 | 0.00 | 0.07 | 0.07 | 82 | 1006.1 |
| 20260509230034 | 57 | 0 | 0.0 | 0.0 | 0.00 | 0.07 | 0.07 | 82 | 1006.2 |
| 20260509225515 | 57 | 0 | 0.0 | 0.0 | 0.00 | 0.07 | 0.07 | 82 | 1006.3 |
| 20260509225014 | 57 | 0 | 0.0 | 0.0 | 0.00 | 0.07 | 0.07 | 82 | 1006.4 |
| 20260509224533 | 57 | 0 | 0.0 | 0.0 | 0.00 | 0.07 | 0.07 | 82 | 1006.4 |
| 20260509224017 | 57 | 0 | 0.0 | 0.0 | 0.00 | 0.07 | 0.07 | 83 | 1006.4 |
| 20260509223517 | 57 | 0 | 0.0 | 0.0 | 0.00 | 0.07 | 0.07 | 82 | 1006.6 |
| 20260509223034 | 57 | 0 | 0.0 | 0.0 | 0.00 | 0.07 | 0.07 | 82 | 1006.4 |
| 20260509222516 | 58 | 0 | 0.0 | 0.0 | 0.00 | 0.07 | 0.07 | 81 | 1006.3 |
| 20260509222018 | 58 | 0 | 0.0 | 0.0 | 0.00 | 0.07 | 0.07 | 80 | 1006.3 |
| 20260509221534 | 58 | 0 | 0.0 | 0.0 | 0.00 | 0.07 | 0.07 | 82 | 1006.2 |
| 20260509221017 | 57 | 0 | 0.0 | 0.0 | 0.00 | 0.07 | 0.07 | 82 | 1006.2 |
| 20260509220516 | 57 | 0 | 0.0 | 0.0 | 0.00 | 0.07 | 0.07 | 81 | 1006.1 |
| 20260509220030 | 57 | 0 | 0.0 | 0.0 | 0.00 | 0.07 | 0.07 | 82 | 1006.2 |
| 20260509215516 | 57 | 0 | 0.0 | 0.0 | 0.00 | 0.07 | 0.07 | 82 | 1006.2 |
| 20260509215017 | 57 | 0 | 0.0 | 0.0 | 0.00 | 0.07 | 0.07 | 82 | 1006.4 |
| 20260509214532 | 57 | 0 | 0.0 | 0.0 | 0.00 | 0.07 | 0.07 | 82 | 1006.7 |
| 20260509214015 | 57 | 0 | 0.0 | 0.0 | 0.00 | 0.07 | 0.07 | 81 | 1006.7 |
| 20260509213517 | 57 | 0 | 0.0 | 0.0 | 0.00 | 0.07 | 0.07 | 82 | 1006.6 |
| 20260509213034 | 57 | 0 | 0.0 | 0.0 | 0.00 | 0.07 | 0.07 | 81 | 1006.6 |
| 20260509212517 | 57 | 0 | 0.0 | 0.0 | 0.00 | 0.07 | 0.07 | 82 | 1006.4 |
| 20260509212020 | 57 | 0 | 0.0 | 0.0 | 0.00 | 0.07 | 0.07 | 82 | 1006.5 |
| 20260509211533 | 57 | 0 | 0.0 | 0.0 | 0.00 | 0.07 | 0.07 | 83 | 1006.5 |
| 20260509211016 | 57 | 0 | 0.0 | 0.0 | 0.00 | 0.07 | 0.07 | 81 | 1006.6 |
| 20260509210513 | 57 | 0 | 0.0 | 0.0 | 0.00 | 0.07 | 0.07 | 81 | 1006.7 |
| 20260509210035 | 57 | 0 | 0.0 | 0.0 | 0.00 | 0.07 | 0.07 | 81 | 1006.6 |
| 20260509205514 | 57 | 0 | 0.0 | 0.0 | 0.00 | 0.07 | 0.07 | 82 | 1006.8 |
| 20260509205014 | 57 | 0 | 0.0 | 0.0 | 0.00 | 0.07 | 0.07 | 80 | 1006.7 |
| 20260509204545 | 57 | 0 | 0.0 | 0.0 | 0.00 | 0.07 | 0.07 | 81 | 1006.7 |
| 20260509204020 | 57 | 0 | 0.0 | 0.0 | 0.00 | 0.07 | 0.07 | 81 | 1006.8 |
| 20260509203517 | 58 | 0 | 0.0 | 0.0 | 0.00 | 0.07 | 0.07 | 80 | 1006.9 |
| 20260509203038 | 58 | 0 | 0.0 | 0.0 | 0.00 | 0.07 | 0.07 | 80 | 1006.9 |
| 20260509202517 | 57 | 0 | 0.0 | 0.0 | 0.00 | 0.07 | 0.07 | 80 | 1007.0 |
| 20260509202015 | 57 | 0 | 0.0 | 0.0 | 0.00 | 0.07 | 0.07 | 81 | 1007.1 |
| 20260509201535 | 57 | 0 | 0.0 | 0.0 | 0.00 | 0.07 | 0.07 | 82 | 1007.0 |